Regional Weather Roundup
Issued by NWS Nashville, TN

Home | Current Version | Previous Version | Text Only | Print | Product List | Glossary On
Versions: 1 2 3 4 5 6 7 8 9 10 11 12 13 14 15 16 17 18 19 20 21 22 23 24 25 26 27 28 29 30 31 32 33 34 35 36 37 38 39 40 41 42 43 44 45 46 47 48 49 50
000
ASUS44 KOHX 040515
RWROHX
MIDDLE TENNESSEE HOURLY WEATHER ROUNDUP
NATIONAL WEATHER SERVICE NASHVILLE TN
1200 AM CDT MON MAY 04 2015

NOTE: "FAIR" INDICATES FEW OR NO CLOUDS BELOW 12,000 FEET WITH
NO SIGNIFICANT WEATHER AND/OR OBSTRUCTIONS TO VISIBILITY.

* THESE REPORTS ARE NOT UNDER NWS QUALITY CONTROL AND MAY NOT
  REPORT WEATHER SUCH AS PRECIPITATION AND FOG.


TNZ005>011-023>034-057-059-062>066-078-080-040600
...NORTHERN MIDDLE TENNESSEE...

CITY           SKY/WX    TMP DP  RH WIND       PRES   REMARKS
CLARKSVILLE    CLEAR     60  50  69 S3        30.10F
CROSSVILLE     CLEAR     62  44  51 VRB3      30.21S
NASHVILLE      PTCLDY    59  51  75 S5        30.13F
PORTLAND       CLEAR     57  50  77 S7        30.12F
SMYRNA         CLEAR     59  51  74 CALM      30.15S
SPARTA         CLEAR     52  50  93 CALM      30.16S
$$
TNZ056-058-060-061-075>077-079-093>097-040600
...SOUTHERN MIDDLE TENNESSEE...

CITY           SKY/WX    TMP DP  RH WIND       PRES   REMARKS
COLUMBIA       CLEAR     55  52  88 S3        30.13S
LEWISBURG      CLEAR     53  49  86 CALM      30.14F
MCMINNVILLE    CLEAR     54  54 100 CALM      30.17S
SHELBYVILLE    CLEAR     57  52  82 E3        30.16F
TULLAHOMA      CLEAR     54  48  82 CALM      30.18S
WINCHESTER     CLEAR     57  50  77 SE3       30.18S
$$


...KEY TO REMARKS...
VSB - VISIBILITY IN MILES
WCI - WIND CHILL INDEX
HX  - HEAT INDEX




USA.gov is the U.S. government's official web portal to all federal, state and local government web resources and services.